{"data":{"norad_id":47273,"intl_designator":"2020-100R","name":"ONEWEB-0127","alt_names":[],"object_type":"PAYLOAD","status":"ACTIVE","operator":null,"country":"UK","launch_date":"2020-12-18","launch_site_code":"VOSTO","launch_vehicle":null,"mission":null,"orbit_class":"UNKNOWN","rcs_meters":null,"size_class":null,"mass_kg":null,"dimensions":null,"purposes":["comms"],"wikipedia_slug":null,"has_3d_model":false,"image_url":null,"decayed_at":null,"tle_current":{"epoch":"2026-09-19T22:10:22.844928Z","epoch_age_seconds":64078,"freshness":"FRESH","line1":"1 47273U 20100R   26262.92387552 -.00000368  00000+0 -10569-2 0  9996","line2":"2 47273  87.8980 331.8551 0001760  98.4246 261.7082 13.12443999277151","mean_motion":13.12443999,"eccentricity":0.000176,"inclination_deg":87.898,"raan_deg":331.8551,"arg_perigee_deg":98.4246,"mean_anomaly_deg":261.7082,"bstar":-0.0010569,"rev_number":27715,"period_min":109.71896714048,"perigee_km":1212.3832718229,"apogee_km":1215.0556052893,"semimajor_km":7591.8564385561,"source":"CELESTRAK","updated_at":"2026-09-20T09:00:44.579019Z"}}}